STARLINK-11627, 63107

Orbit data source: Space-Track

STARLINK-11627, 63107 is a payload satellite owned by SpaceX/Seattle (US) in LEO that was launched on Thu, 27 Feb 2025 UTC via an FALCON 9 launch vehicle from the Air Force Eastern Test Range (AFETR). Payload-class satellites include a variety of spacecraft equipped with specific instruments for various scientific and technological missions. These include communications satellites like Starlink; space stations such as the ISS; scientific satellites like the Hubble; Earth observation satellites from companies like Planet Labs, Umbra, and HawkEye 360; GPS; miniature CubeSats for education and research; and military/defense satellites.

Loading next visibility...
Identifier
63107, 2025-039D
Orbit
LEO
Last TLE update
20 hours ago
Origin
Manufacturer
SpaceX/Seattle
Mission
Operational Commercial Communications
Bus & Motor
STARLINK V2M, Unknown motor
Mass
730 kg wet, ~700 kg dry
Launch date (UTC)
2025-02-27 (2 months ago)
Launch vehicle
FALCON 9
Launch site
Air Force Eastern Test Range (AFETR)
Object type
Payload
Rocket body
Debris
Shape & HBR
Box + 2 Pan, 29 m
Radar Cross Section
36.964 m², Large (>1 m²)

Expand to show TLE details & history

TLE from 20 hours ago
0 STARLINK-11627
1 63107U 25039D   25128.41208846  .00000565  00000-0  61122-5 0  9990
2 63107  42.9981 278.7100 0001601 266.7620  93.3067 15.77860321 11587
Epoch: 2025-05-08T09:53Z
Definitive object data (Epoch: 2025-05-08T09:53:24.442Z)
Latitude
-0.00004°
Longitude
-96.12484°
Altitude
336.337 km
Speed
7.709 km/s
True Right ascension
18h 34m 50s
True Declination
0° 00' 00"
Sunlit
Object was in full shadow at TLE epoch
Visualization TLE readout
Latitude
37.42528°
Longitude
24.04126°
Altitude
339.378 km
Speed
7.71 km/s
Apparent Right ascension
02h 26m 34s
Apparent Declination
0° 03' 14"
Sunlit
Object is in daylight
Visualization observer readout
Local Sidereal Time
14:16:51
Azimuth
356.209° N
Elevation
-50.076°
Doppler factor
1
Orbital elements
Apogee altitude
339.567 km
Perigee altitude
337.417 km
Semi-major axis
6,716.629 km
Eccentricity
0.0001601
Inclination
42.9981°
RAAN
278.71°
Arg. of periapsis
266.762°
True anomaly
93.32502°
Mean anomaly
93.3067°
Eccentric anomaly
93.31586°
Mean motion
3.9429 °/min
BSTAR
0.0000061122
Orbital period
91.3 mins
Loading maneuver chart data...
Loading SW <> Apogee altitude chart data...
Loading historical data...
Loading historical data...
Loading historical data...
Loading historical data...
Loading historical data...
Loading historical data...
Loading historical data...

STARLINK-11627 Visibility forecast

Observer location: undefined°, undefined°

Span
Click to sort rows by Start time (UTC) header in descending order
Start Az.
Max El. time (UTC)
Max El. Az.
Max El.
End time (UTC)
End Az.
4 mins2025-05-09 13:28:04.068Z223.43° SW2025-05-09 13:30:04.068Z148.685° SSE35.173°2025-05-09 13:32:04.068Z84.556° E
4 mins2025-05-09 15:04:04.068Z283.269° WNW2025-05-09 15:06:04.068Z23.65° NE34.695°2025-05-09 15:08:04.068Z66.583° ENE
4 mins2025-05-09 16:40:04.068Z302.316° NW2025-05-09 16:41:04.068Z332.335° NNW33.876°2025-05-09 16:44:04.068Z84.543° E
|